Terminal Aerodrome Forecast
Issued by NWS Boston, MA

Home | Current Version | Previous Version | Text Only | Print | Product List | Glossary On
Versions: 1 2 3 4 5 6 7 8 9 10 11 12 13 14 15 16 17 18 19 20 21 22 23 24 25 26 27 28 29 30 31 32 33 34 35 36 37 38 39 40 41 42 43 44 45 46 47 48 49 50
000
FTUS41 KBOX 171412 AAA
TAFBOS
TAF AMD
KBOS 171412Z 1714/1818 06015G22KT P6SM SCT035 SCT250
     FM171900 07014KT P6SM BKN035
     FM172200 08012KT P6SM SCT035
     FM180600 06008KT P6SM FEW250
     FM181100 07010KT P6SM BKN020
     FM181400 08010KT P6SM BKN200=

USA.gov is the U.S. government's official web portal to all federal, state and local government web resources and services.